Location: Borea
(45.6167°N, 23.0167°E)
Time: 23:04:57
(UTC+00:00)

OPS 8068 - Visible Passes

Search period start: 21 February 2024 00:00
Search period end: 02 March 2024 00:00
Orbit: 630 x 964 km, 98.3° (Epoch: 21 February)

Date Brightness Start Highest point End Pass type
(mag) Time Alt. Az. Time Alt. Az. Time Alt. Az.
21 Feb ? 02:03:06 10° ESE 02:06:24 21° ENE 02:09:47 10° NNE visible
21 Feb ? 03:41:46 10° S 03:45:50 40° W 03:50:04 10° NNW visible
21 Feb ? 17:31:54 10° NNW 17:35:56 23° WNW 17:40:12 10° WSW visible
22 Feb ? 01:37:23 10° E 01:39:16 13° ENE 01:41:11 10° NNE visible
22 Feb ? 03:13:57 10° S 03:18:17 78° WSW 03:22:47 10° NNW visible
22 Feb ? 17:03:54 10° N 17:08:43 37° WNW 17:13:53 10° SW visible
23 Feb ? 02:46:35 10° SSE 02:50:50 56° ENE 02:55:17 10° N visible
23 Feb ? 04:28:30 10° SW 04:31:00 15° W 04:33:32 10° NW visible
23 Feb ? 16:36:09 10° N 16:41:24 62° WNW 16:47:04 10° SSW visible
23 Feb ? 18:19:08 10° NW 18:20:10 11° NW 18:21:11 10° WNW visible
24 Feb ? 02:19:40 10° SE 02:23:30 31° ENE 02:27:31 10° N visible
24 Feb ? 03:59:30 10° SSW 04:03:14 27° W 04:07:06 10° NW visible
24 Feb ? 17:49:40 10° NNW 17:53:07 18° WNW 17:56:43 10° W visible
25 Feb ? 01:53:19 10° ESE 01:56:18 18° ENE 01:59:25 10° NNE visible
25 Feb ? 03:31:20 10° S 03:35:34 51° W 03:40:03 10° NNW visible
25 Feb ? 17:21:27 10° N 17:25:58 28° WNW 17:30:46 10° WSW visible
26 Feb ? 01:28:13 10° ENE 01:29:14 11° NE 01:30:16 10° NE visible
26 Feb ? 03:03:41 10° SSE 03:08:03 84° ENE 03:12:41 10° NNW visible
26 Feb ? 16:53:34 10° N 16:58:44 45° WNW 17:04:15 10° SW visible
27 Feb ? 02:36:28 10° SE 02:40:39 45° ENE 02:45:06 10° N visible
27 Feb ? 04:17:32 10° SW 04:20:41 19° W 04:23:57 10° NW visible
27 Feb ? 18:07:44 10° NNW 18:10:15 13° WNW 18:12:52 10° W visible
28 Feb ? 02:09:43 10° ESE 02:13:23 26° ENE 02:17:15 10° N visible
28 Feb ? 03:48:55 10° SSW 03:52:56 35° W 03:57:12 10° NNW visible
28 Feb ? 17:39:07 10° NNW 17:43:11 22° WNW 17:47:27 10° WSW visible
29 Feb ? 01:43:34 10° E 01:46:15 16° ENE 01:49:01 10° NNE visible
29 Feb ? 03:20:57 10° S 03:25:20 66° WSW 03:30:02 10° NNW visible
29 Feb ? 17:11:04 10° N 17:16:01 34° WNW 17:21:15 10° SW visible
01 Mar ? 02:53:26 10° SSE 02:57:51 68° ENE 03:02:36 10° N visible
01 Mar ? 04:36:03 10° WSW 04:38:11 13° W 04:40:22 10° WNW visible
01 Mar ? 16:43:18 10° N 16:48:45 54° WNW 16:54:34 10° SW visible
